Torna al catalogo

STARLINK-31496

AttivoComunicazioniVLEO
NORAD 59211·PAYLOAD·🇺🇸 United States

Lanciato Mar 11, 2024 da Vandenberg Space Force Base

Loading…

Prossimi Passaggi (prossime 24 ore)

TLE

AggiornatoSource: CelesTrak SupGP

Epoca: Sep 15, 2026, 02:24 UTC

1 59211C 24046L   26258.10048611  .00069209  00000+0  20450-2 0  2584
2 59211  53.1585 340.6048 0001121 102.7214 114.8063 15.34353162    11

Traccia STARLINK-31496 in tempo reale con AllMySat

Download on the App Store